Собоба Спрингс

США     33°49′30″N   116°56′38″W
темп.,
°C
ветер,
м/с
пор.,
м/с
влажн.,
%
обл.,
%
осадки,
мм/ч
давл.,
гПа
погр.,
м
21 октября, чт
чт2123:00+14в225597 0.0 101811
02:00+12ссз00539 0.0 101811
05:00+11св115092 0.0 101811
08:00+15ссв113825 0.0 101911
11:00+24з21185 0.0 1018681
14:00+27з321383 0.0 10161193
17:00+25зюз332124 0.0 1015294
20:00+16ю115052 0.0 101811
22 октября, пт
пт2223:00+14ссв005312 0.0 101711
02:00+13св00555 0.0 101611
05:00+12в11585 0.0 101511
08:00+15юз114949 0.0 101611
11:00+20юз1134100 0.0 1015613
14:00+23юз33243 0.0 10121298
17:00+22ююз55305 0.0 1011725
20:00+14ю2269100 0.0 101325
23 октября, сб
сб2323:00+13ююв2274100 0.0 101315
02:00+12ююв2280100 0.0 101311
05:00+12ююв1281100 0.0 101267
08:00+13ююв2283100 0.0 1012208
11:00+16ююз346794 0.1 10121003
14:00+19ююз663739 0.0 10101284
17:00+16ююз54500 0.0 1010899
20:00+12ю2383100 0.0 101149
24 октября, вс
вс2423:00+11юв228592 0.0 101287
02:00+10юв228678 0.0 101236
05:00+10юв118798 0.0 101232
08:00+11сз0180100 0.0 101385
11:00+16зюз2157100 0.0 1013573
14:00+19зсз1248100 0.0 1011893
17:00+19сз1249100 0.0 1011675
20:00+14ююв1172100 0.0 101214
25 октября, пн
пн2523:00+12юз118367 0.0 101311
02:00+12ююв118649 0.0 101211
05:00+11юз1189100 0.0 101311
08:00+13ю11791 0.0 101361
11:00+18ююз46569 0.0 10121019
14:00+18юз81061100 0.0 10111218
17:00+14ю3992100 1.4 1010751
20:00+14зюз358930 3.6 1012348